TimeCST,TemperatureF,Dew PointF,Humidity,Sea Level PressureIn,VisibilityMPH,Wind Direction,Wind SpeedMPH,Gust SpeedMPH,PrecipitationIn,Events,Conditions,WindDirDegrees,DateUTC
12:15 AM,65.7,57.7,76,29.78,10.0,SSW,17.3,29.9,N/A,,Overcast,200,2014-02-01 06:15:00
12:35 AM,65.8,57.7,75,29.79,10.0,SSW,11.5,31.1,N/A,,Overcast,200,2014-02-01 06:35:00
12:55 AM,65.7,57.6,75,29.79,10.0,SSW,16.1,24.2,N/A,,Overcast,200,2014-02-01 06:55:00
1:15 AM,66.0,57.6,74,29.78,10.0,SSW,13.8,25.3,N/A,,Overcast,200,2014-02-01 07:15:00
1:35 AM,65.8,57.6,75,29.78,10.0,SSW,17.3,26.5,N/A,,Overcast,200,2014-02-01 07:35:00
1:55 AM,66.2,57.4,73,29.78,10.0,SSW,13.8,28.8,N/A,,Overcast,200,2014-02-01 07:55:00
2:15 AM,66.2,57.4,73,29.78,10.0,SSW,16.1,27.6,N/A,,Overcast,210,2014-02-01 08:15:00
2:35 AM,66.2,57.4,73,29.78,10.0,SSW,16.1,26.5,N/A,,Overcast,210,2014-02-01 08:35:00
2:55 AM,66.2,57.4,73,29.78,10.0,SW,11.5,20.7,N/A,,Overcast,220,2014-02-01 08:55:00
3:15 AM,65.7,57.6,75,29.77,10.0,SSW,10.4,25.3,N/A,,Overcast,200,2014-02-01 09:15:00
3:35 AM,65.5,57.4,75,29.78,10.0,SW,8.1,19.6,N/A,,Overcast,220,2014-02-01 09:35:00
3:55 AM,65.3,57.6,76,29.78,10.0,SSW,11.5,16.1,N/A,,Overcast,200,2014-02-01 09:55:00
4:15 AM,65.3,57.6,76,29.77,10.0,SSW,11.5,16.1,N/A,,Overcast,200,2014-02-01 10:15:00
4:35 AM,65.3,57.6,76,29.78,10.0,SW,10.4,16.1,N/A,,Overcast,220,2014-02-01 10:35:00
4:55 AM,65.3,57.6,76,29.77,10.0,SW,9.2,-,N/A,,Overcast,220,2014-02-01 10:55:00
5:47 AM,53.6,41.0,62,29.80,13.0,WNW,5.8,-,N/A,,Overcast,290,2014-02-01 11:47:00
6:47 AM,46.4,37.4,71,29.81,13.0,NNW,11.5,19.6,N/A,,Overcast,330,2014-02-01 12:47:00
7:47 AM,46.4,35.6,66,29.85,13.0,NW,9.2,-,N/A,,Overcast,310,2014-02-01 13:47:00
8:53 AM,44.6,35.6,71,29.88,10.0,NW,10.4,-,N/A,,Overcast,310,2014-02-01 14:53:00
9:49 AM,44.6,35.6,71,29.91,7.0,NW,10.4,-,N/A,,Overcast,310,2014-02-01 15:49:00
10:47 AM,46.4,35.6,66,29.92,7.0,NW,9.2,-,N/A,,Overcast,320,2014-02-01 16:47:00
11:47 AM,44.6,35.6,71,29.92,5.0,NW,12.7,-,N/A,,Overcast,310,2014-02-01 17:47:00
12:55 PM,46.4,35.6,66,29.90,5.0,NW,9.2,-,N/A,,Overcast,310,2014-02-01 18:55:00
1:50 PM,46.4,35.6,66,29.89,5.0,NW,9.2,-,N/A,,Overcast,320,2014-02-01 19:50:00
4:47 PM,46.4,33.8,62,29.91,7.0,North,12.7,-,N/A,,Overcast,350,2014-02-01 22:47:00
5:47 PM,46.4,33.8,62,29.93,6.0,North,4.6,-,N/A,,Overcast,360,2014-02-01 23:47:00
6:47 PM,44.6,32.0,61,29.96,7.0,North,13.8,20.7,N/A,,Overcast,350,2014-02-02 00:47:00
7:56 PM,44.6,32.0,61,29.98,9.0,North,12.7,17.3,N/A,,Overcast,360,2014-02-02 01:56:00
8:49 PM,44.6,30.2,57,30.00,10.0,North,12.7,19.6,N/A,,Overcast,10,2014-02-02 02:49:00
9:15 PM,44.2,31.5,61,30.02,10.0,NNE,16.1,20.7,N/A,,Overcast,20,2014-02-02 03:15:00
9:35 PM,43.9,31.3,61,30.02,10.0,NNE,12.7,20.7,N/A,,Overcast,20,2014-02-02 03:35:00
9:47 PM,42.8,30.2,61,30.01,10.0,North,16.1,20.7,N/A,,Overcast,10,2014-02-02 03:47:00
9:55 PM,43.7,31.1,61,30.02,10.0,North,16.1,24.2,N/A,,Overcast,10,2014-02-02 03:55:00
10:15 PM,43.0,30.9,62,30.02,10.0,North,17.3,20.7,N/A,,Overcast,360,2014-02-02 04:15:00
10:35 PM,42.8,30.4,62,30.03,10.0,North,16.1,19.6,N/A,,Overcast,360,2014-02-02 04:35:00
10:55 PM,41.9,30.2,63,30.03,10.0,North,11.5,16.1,N/A,,Overcast,10,2014-02-02 04:55:00
11:15 PM,40.1,28.4,63,30.04,10.0,North,17.3,24.2,N/A,,Overcast,360,2014-02-02 05:15:00
11:35 PM,39.2,28.4,65,30.05,10.0,North,16.1,24.2,N/A,,Overcast,10,2014-02-02 05:35:00
11:55 PM,38.3,28.4,68,30.06,10.0,North,13.8,23.0,N/A,,Overcast,350,2014-02-02 05:55:00